Location: Home
(42.5358°N, 72.7383°W)
Time: 00:52:50
(UTC-05:00)

Vanguard 1 - Pass Details

Date: 01 December 2021
Orbit: 652 x 3830 km, 34.2° (Epoch: 21 January)

Event Time Altitude Azimuth Distance (km) Brightness Sun altitude
Enters shadow 23:08:03 - 222° (SW) 7,122 14.4 -68.4°
Rises 23:08:04 0° 222° (SW) 7,120 - -68.4°
Reaches altitude 10° 23:12:42 10° 217° (SW) 6,396 - -68.6°
Maximum altitude 23:33:22 49° 151° (SSE) 4,505 - -69.4°
Exits shadow 23:49:51 18° 90° (E) 5,695 13.8 -69.4°
Drops below altitude 10° 23:53:02 10° 85° (E) 6,159 14.1 -69.3°
Sets 23:57:19 0° 80° (E) 6,855 14.5 -69.1°
